Weather Roundup
Issued by NWS

Home | Current Version | Previous Version | Graphics & Text | Print | Product List | Glossary Off
Versions: 1 2 3 4 5 6 7 8 9 10 11 12 13 14 15 16 17 18 19 20 21 22 23 24 25 26 27 28 29 30 31 32 33 34 35 36 37 38 39 40 41 42 43 44 45 46 47 48 49 50

000
NZUS93 KARX 131659
HRRWXR

CURRENT HOURLY OBSERVATIONS ACROSS
MUCH OF THE UPPER MISSISSIPPI VALLEY
NATIONAL WEATHER SERVICE LA CROSSE WI
1200 PM CDT SUN JUL 13 2014


...SOUTHEAST MINNESOTA...


CITY           SKY/WX    TMP DP  RH WIND       PRES   REMARKS
ROCHESTER      MOSUNNY   73  58  59 NW12      29.99S
ROCHESTER/MAYO FAIR      71  53  52 W13G18    29.98S
WINONA         SUNNY     73  52  46 N12       29.96S
AUSTIN         NOT AVBL
ALBERT LEA     MOSUNNY   75  57  53 NW7G21    30.00S
DODGE CENTER   MOSUNNY   72  55  56 W13G20    29.99S
PRESTON        SUNNY     74  62  66 W16       29.99S
OWATONNA       SUNNY     73  55  53 NW13      30.00S
FARIBAULT      SUNNY     75  46  35 NW10      30.00R
$$

...ELSEWHERE IN MINNESOTA...


CITY           SKY/WX    TMP DP  RH WIND       PRES   REMARKS
MINNEAPOLIS    MOSUNNY   73  47  39 W8        29.97F
INTNL FALLS    PTSUNNY   66  47  50 W13G26    29.81F
DULUTH         MOSUNNY   68  47  46 W15       29.89F
RED WING       SUNNY     73  48  40 W7        29.96S
REDWOOD FALLS  SUNNY     74  52  46 N8        30.00F
MANKATO        SUNNY     72  50  46 NW13      30.00S
WORTHINGTON    SUNNY     75  55  50 W10       30.06S
FAIRMONT       SUNNY     79  55  44 W9        30.02S
$$

...SOUTHWEST WISCONSIN...


CITY           SKY/WX    TMP DP  RH WIND       PRES   REMARKS
LA CROSSE      SUNNY     77  61  57 NW13      29.93S
PRAIRIE DU CHI SUNNY     78  65  64 W8        29.94F
BOSCOBEL       SUNNY     83  68  60 VRB7      29.93F
LONE ROCK      MOSUNNY   82  67  60 W14G20    29.93F
PLATTEVILLE    MOSUNNY   77  69  75 W14G21    29.98S
FORT MC COY    MOSUNNY   74  55  51 NW9G16    29.95R
CAMP DOUGLAS   MOSUNNY   73  66  78 NW9G20    29.93S
VIROQUA        PTSUNNY   73  65  76 W7        29.96F
WIS DELLS      PTSUNNY   77  62  60 W13G20    29.93S
$$

...ELSEWHERE IN WISCONSIN...


CITY           SKY/WX    TMP DP  RH WIND       PRES   REMARKS
MILWAUKEE      MOSUNNY   80  60  50 W14       29.91S
MADISON        PTSUNNY   78  66  66 NW12G18   29.92F
GREEN BAY      PTSUNNY   77  60  55 NW15G21   29.86F
EAU CLAIRE     NOT AVBL
BLACK RVR FLS  FAIR      74  47  38 NW8       29.95R
MEDFORD        SUNNY     66  49  54 W8        29.94R
WAUSAU         SUNNY     71  47  42 NW14G20   29.90S
WIS RAPIDS     MOSUNNY   75  54  47 NW12      29.94R
MARSHFIELD     SUNNY     71  49  45 NW12      29.94R
RICE LAKE      SUNNY     68  49  50 W8        29.97S
$$

...NORTHEAST IOWA...


CITY           SKY/WX    TMP DP  RH WIND       PRES   REMARKS
WATERLOO       MOSUNNY   79  67  66 NW12      29.97F
DUBUQUE        MOSUNNY   77  69  76 W14       29.98S
DECORAH          N/A    N/A N/A N/A MISG        N/A
MASON CITY     SUNNY     78  64  61 NW12      30.02S
CHARLES CITY   SUNNY     77  66  69 NW9G16    30.00S
OELWEIN        MOSUNNY   79  79 100 W12G20    29.99F
$$

...ELSEWHERE IN IOWA...


CITY           SKY/WX    TMP DP  RH WIND       PRES   REMARKS
DES MOINES     MOSUNNY   84  65  52 NW10      30.01S
IOWA CITY      MOSUNNY   79  70  74 W8        30.00F
FORT DODGE     PTSUNNY   79  70  73 W9        30.03S
MARSHALLTOWN   MOSUNNY   78  69  73 NW13      29.99F
CEDAR RAPIDS   PTSUNNY   78  68  71 W9        29.98F
$$

...NORTHERN ILLINOIS...


CITY           SKY/WX    TMP DP  RH WIND       PRES   REMARKS
CHICAGO-OHARE  MOSUNNY   79  63  57 W10       29.94S
DUPAGE         MOSUNNY   79  66  64 NW9       29.95S
CHICAGO-MIDWAY MOSUNNY   78  66  66 W9        29.94S
MOLINE         SUNNY     79  68  69 W6        29.97F
ROCKFORD       MOSUNNY   78  65  63 W9        29.96F
STERLING       SUNNY     79  70  73 W7        29.97F
PEORIA         CLOUDY    76  66  71 NW5       29.98F
$$

NOTE: "FAIR" INDICATES FEW OR NO CLOUDS BELOW 12,000 FEET WITH NO
SIGNIFICANT WEATHER AND/OR OBSTRUCTIONS TO VISIBILITY. WIND
SPEEDS ARE IN MILES-PER-HOUR.



USA.gov is the U.S. government's official web portal to all federal, state and local government web resources and services.